cover

 

Get it on iTunes StoreListen on Apple Music

Space Cat

#Trackname / Key / BPM / Publish dateArtists, Remixers / Label
1 146 bpm, 10A / B minor, 2018-09-28, Psy-Trance,  0  4
2 142 bpm, 7B / F major, 2018-08-03, Psy-Trance,  0  18
3 142 bpm, 12B / E major, 2018-08-03, Psy-Trance,  0  18
4 142 bpm, 2B / F# major, 2018-06-25, Psy-Trance,  2  1
5 142 bpm, 12B / E major, 2018-03-19, Psy-Trance,  2  2
6 142 bpm, 7B / F major, 2018-03-19, Psy-Trance,  4  2
1
7 144 bpm, 6A / G minor, 2018-03-05, Psy-Trance,  1  10
8 144 bpm, 2B / F# major, 2018-02-12, Psy-Trance,  2  1
9 140 bpm, 6A / G minor, 2018-01-15, Psy-Trance,  12  1
1
10 140 bpm, 7B / F major, 2017-12-22, Psy-Trance,  2  20
11 145 bpm, 8A / A minor, 2017-07-24, Psy-Trance,  0  9
12 138 bpm, 5B / Eb major, 2017-06-12, Psy-Trance,  1  8
13 142 bpm, 12B / E major, 2017-05-08, Psy-Trance,  1  19
14 145 bpm, 2A / Eb minor, 2017-03-20, Psy-Trance,  0  9
15 140 bpm, 7B / F major, 2017-03-10, Psy-Trance,  3  1
16 144 bpm, 6A / G minor, 2017-01-30, Psy-Trance,  3  1
17 142 bpm, 11B / A major, 2016-11-07, Psy-Trance,  1  2
18 142 bpm, 11A / F# minor, 2016-11-07, Psy-Trance,  9  2
19 140 bpm, 5B / Eb major, 2016-10-14, Psy-Trance,  0  18
20 140 bpm, 7B / F major, 2016-09-30, Psy-Trance,  0  18
21 142 bpm, 1A / Ab minor, 2016-08-05, Psy-Trance,  0  18
22 142 bpm, 1B / B major, 2016-07-22, Psy-Trance,  1  18
23 140 bpm, 7B / F major, 2016-06-20, Psy-Trance,  5  2
24 140 bpm, 5B / Eb major, 2016-06-20, Psy-Trance,  2  2
25 142 bpm, 10B / D major, 2016-06-13, Psy-Trance,  1  10
26 142 bpm, 1A / Ab minor, 2016-05-30, Psy-Trance,  5  2
27 142 bpm, 1B / B major, 2016-05-30, Psy-Trance,  2  2
28 138 bpm, 11A / F# minor, 2016-03-04, Psy-Trance,  1  18
29 140 bpm, 7B / F major, 2016-02-29, Psy-Trance,  0  14
30 142 bpm, 2B / F# major, 2015-12-28, Psy-Trance,  0  12
31 145 bpm, 6A / G minor, 2015-12-28, Psy-Trance,  0  20
32 138 bpm, 11A / F# minor, 2015-10-26, Psy-Trance,  10  1
33 140 bpm, 11A / F# minor, 2015-10-26, Psy-Trance,  2  3
34 140 bpm, 7B / F major, 2015-10-12, Psy-Trance,  1  2
35 142 bpm, 11B / A major, 2015-10-12, Psy-Trance,  2  2
36 140 bpm, 9B / G major, 2015-09-14, Psy-Trance,  0  9
37 142 bpm, 2B / F# major, 2015-07-06, Psy-Trance,  5  2
38 142 bpm, 2B / F# major, 2015-07-06, Psy-Trance,  3  2
39 142 bpm, 2B / F# major, 2015-06-22, Psy-Trance,  0  46
40 145 bpm, 6A / G minor, 2015-06-22, Psy-Trance,  0  9
41 142 bpm, 11B / A major, 2015-05-25, Psy-Trance,  0  8
42 140 bpm, 2B / F# major, 2015-02-25, Psy-Trance,  1  2
43 139 bpm, 12B / E major, 2015-02-25, Psy-Trance,  1  2
44 145 bpm, 3A / Bb minor, 2014-10-06, Psy-Trance,  1  2
45 143 bpm, 7B / F major, 2014-09-22, Psy-Trance,  1  9
46 142 bpm, 10A / B minor, 2014-09-22, Psy-Trance,  0  9
47 140 bpm, 7B / F major, 2014-09-22, Psy-Trance,  2  9
48 146 bpm, 9A / E minor, 2014-09-22, Psy-Trance,  1  9
49 145 bpm, 5A / C minor, 2014-09-22, Psy-Trance,  1  9
50 144 bpm, 4B / Ab major, 2014-09-22, Psy-Trance,  6  9
51 144 bpm, 12B / E major, 2014-09-22, Psy-Trance,  1  9
52 140 bpm, 9A / E minor, 2014-09-22, Psy-Trance,  1  9
53 140 bpm, 8A / A minor, 2014-09-22, Psy-Trance,  1  9
54 143 bpm, 7B / F major, 2014-09-08, Psy-Trance,  0  2
55 140 bpm, 8A / A minor, 2014-09-08, Psy-Trance,  1  2
56 142 bpm, 11B / A major, 2014-06-04, Psy-Trance,  1  3
57 140 bpm, 9A / E minor, 2014-03-03, Psy-Trance,  2  11
58 93 bpm, 9B / G major, 2014-02-26, Psy-Trance,  0  3
59 142 bpm, 7B / F major, 2014-02-26, Psy-Trance,  1  3
60 139 bpm, 7A / D minor, 2014-02-26, Psy-Trance,  3  3
61 143 bpm, 8A / A minor, 2013-11-04, Psy-Trance,  2  1
62 145 bpm, 8A / A minor, 2013-10-23, Psy-Trance,  0  11
63 140 bpm, 8A / A minor, 2013-09-16, Psy-Trance,  1  4
64 140 bpm, 1A / Ab minor, 2013-09-16, Psy-Trance,  1  4
65 138 bpm, 9B / G major, 2013-09-16, Psy-Trance,  0  4
66 137 bpm, 9B / G major, 2013-09-16, Psy-Trance,  2  4
67 143 bpm, 8A / A minor, 2013-09-11, Psy-Trance,  0  9
68 145 bpm, 9A / E minor, 2013-09-11, Psy-Trance,  0  9
69 144 bpm, 9A / E minor, 2013-09-11, Psy-Trance,  0  9
70 145 bpm, 6A / G minor, 2013-09-11, Psy-Trance,  0  9
71 146 bpm, 8A / A minor, 2013-09-11, Psy-Trance,  0  9
72 145 bpm, 8A / A minor, 2013-09-11, Psy-Trance,  0  9
73 145 bpm, 8A / A minor, 2013-09-11, Psy-Trance,  0  9
74 145 bpm, 3A / Bb minor, 2013-09-11, Psy-Trance,  0  9
75 145 bpm, 7B / F major, 2013-09-11, Psy-Trance,  0  9
76 146 bpm, 8A / A minor, 2013-08-07, Psy-Trance,  0  9
77 145 bpm, 5A / C minor, 2013-07-24, Psy-Trance,  0  10
78 135 bpm, 11B / A major, 2013-06-17, Psy-Trance,  1  18
79 135 bpm, 11B / A major, 2012-12-13, Psy-Trance,  0  20
80 144 bpm, 8A / A minor, 2012-09-14, Psy-Trance,  0  10
81 142 bpm, 11B / A major, 2012-09-05, Psy-Trance,  1  3
82 145 bpm, 8A / A minor, 2012-08-15, Psy-Trance,  2  1
83 142 bpm, 8A / A minor, 2012-06-15, Psy-Trance,  0  3
84 145 bpm, 8A / A minor, 2012-03-09, Psy-Trance,  1  10
85 145 bpm, 8A / A minor, 2012-01-18, Psy-Trance,  0  9
86 145 bpm, 11B / A major, 2012-01-17, Psy-Trance,  0  10
87 145 bpm, 11B / A major, 2012-01-10, Psy-Trance,  0  9
88 146 bpm, 10A / B minor, 2011-12-23, Psy-Trance,  1  9
89 144 bpm, 5A / C minor, 2011-12-21, Psy-Trance,  0  8
90 142 bpm, 4A / F minor, 2011-12-21, Psy-Trance,  0  9
91 146 bpm, 4A / F minor, 2011-12-07, Psy-Trance,  0  9
92 145 bpm, 8A / A minor, 2011-11-18, Psy-Trance,  0  10
93 144 bpm, 8A / A minor, 2011-10-26, Psy-Trance,  1  9
94 145 bpm, 8A / A minor, 2011-07-06, Psy-Trance,  0  11
95 143 bpm, 8A / A minor, 2011-04-13, Psy-Trance,  0  9
96 145 bpm, 9A / E minor, 2011-04-13, Psy-Trance,  0  9
97 144 bpm, 9A / E minor, 2011-04-13, Psy-Trance,  0  9
98 145 bpm, 6A / G minor, 2011-04-13, Psy-Trance,  0  9
99 146 bpm, 8A / A minor, 2011-04-13, Psy-Trance,  0  9
100 145 bpm, 8A / A minor, 2011-04-13, Psy-Trance,  0  9
×

Sign in

Sign in to access your personalized pages, follow artists and labels you love, and create playlists fromyour favorite tracks.

Please wait...